Showing default

COSMOS 89, 1587

Orbit data source: Space-Track

COSMOS 89, 1587 is a payload satellite owned by OKB-10 (CIS) in LEO that was launched on Sat, 18 Sep 1965 UTC via a KOSMOS 65S3 launch vehicle from the Tyuratam Missile And Space Complex (TTMTR). Payload-class satellites include a variety of spacecraft equipped with specific instruments for various scientific and technological missions. These include communications satellites like Starlink; space stations such as the ISS; scientific satellites like the Hubble; Earth observation satellites from companies like Planet Labs, Umbra, and HawkEye 360; GPS; miniature CubeSats for education and research; and military/defense satellites.

Loading next visibility...
Identifier
1587, 1965-073D
Orbit
LEO
Last TLE update
21 hours ago
Origin
Manufacturer
OKB-10
Mission
Defense Communications
Bus & Motor
STRELA-1 11F610, Unknown motor
Mass
50 kg wet, 50 kg dry
Launch date (UTC)
1965-09-18 (60 years ago)
Launch vehicle
KOSMOS 65S3
Launch site
Tyuratam Missile And Space Complex (TTMTR)
Object type
Payload
Rocket body
Debris
Shape & HBR
Poly, 0.8 m
Radar Cross Section
0.731 m², Medium (>0.1 m² and < 1m²)

Expand to show TLE details & history

TLE from 21 hours ago
0 COSMOS 89
1 01587U 65073D   25128.35099105 -.00000071  00000-0  16120-3 0  9994
2 01587  56.0535 136.0508 0168938 134.1688 227.3240 12.38982797698689
Epoch: 2025-05-08T08:25Z
Definitive object data (Epoch: 2025-05-08T08:25:25.626Z)
Latitude
-0.00006°
Longitude
143.27125°
Altitude
1,603.507 km
Speed
7.028 km/s
True Right ascension
09h 04m 12s
True Declination
0° 00' 00"
Sunlit
Object was in daylight at TLE epoch
Visualization TLE readout
Latitude
-48.71745°
Longitude
91.2312°
Altitude
1,653.057 km
Speed
6.99 km/s
Apparent Right ascension
03h 38m 45s
Apparent Declination
-48° 57' 10"
Sunlit
Object is in daylight
Visualization observer readout
Local Sidereal Time
13:30:37
Azimuth
237.58° WSW
Elevation
-65.628°
Doppler factor
1
Orbital elements
Apogee altitude
1,644.016 km
Perigee altitude
1,377.47 km
Semi-major axis
7,888.88 km
Eccentricity
0.0168938
Inclination
56.0535°
RAAN
136.0508°
Arg. of periapsis
134.1688°
True anomaly
225.92098°
Mean anomaly
227.324°
Eccentric anomaly
226.62048°
Mean motion
3.09756 °/min
BSTAR
0.0001612
Orbital period
116.22 mins
Loading maneuver chart data...
Loading SW <> Apogee altitude chart data...
Loading historical data...
Loading historical data...
Loading historical data...
Loading historical data...
Loading historical data...
Loading historical data...
Loading historical data...

COSMOS 89 Visibility forecast

Observer location: undefined°, undefined°

Span
Click to sort rows by Start time (UTC) header in descending order
Start Az.
Max El. time (UTC)
Max El. Az.
Max El.
End time (UTC)
End Az.
14 mins2025-05-09 06:02:57.497Z294.808° NW2025-05-09 06:09:57.497Z348.62° N25.293°2025-05-09 06:16:57.497Z46.626° ENE
13 mins2025-05-09 08:07:57.497Z322.687° NNW2025-05-09 08:13:57.497Z15.703° NNE28.79°2025-05-09 08:20:57.497Z79.292° E
15 mins2025-05-09 10:09:57.497Z316.194° NNW2025-05-09 10:16:57.497Z62.065° ENE44.756°2025-05-09 10:24:57.497Z132.625° SE
11 mins2025-05-09 12:11:57.497Z287.965° WNW2025-05-09 12:16:57.497Z246.655° WSW22.832°2025-05-09 12:22:57.497Z195.997° SSW
14 mins2025-05-10 01:11:57.497Z175.078° S2025-05-10 01:17:57.497Z126.127° SE29.669°2025-05-10 01:25:57.497Z60.694° ENE
16 mins2025-05-10 03:11:57.497Z237.188° WSW2025-05-10 03:18:57.497Z299.025° NW43.169°2025-05-10 03:27:57.497Z43.158° NE
6 mins2025-05-10 05:15:57.497Z288.823° WNW2025-05-10 05:21:57.497Z338.715° N27.485°2025-05-10 05:21:57.497Z338.715° N
|